This is the latest recevied weather packets stored in our database for station/object K6QM-1. If no packets are shown the sender has not sent any weather packets the latest 10 day(s).
| Time | Temp. | Humidity | Pressure | Rain* | Wind** | Luminosity | Snow |
|---|---|---|---|---|---|---|---|
| 1777242286 | 22.22° C | 41% | 1015.8 hPa | - | - | - | - |
| 1777241385 | 22.22° C | 42% | 1017.2 hPa | - | - | - | - |
| 1777240485 | 22.78° C | 41% | 1017.3 hPa | - | - | - | - |
| 1777239585 | 22.22° C | 42% | 1017.3 hPa | - | - | - | - |
| 1777238685 | 21.67° C | 42% | 1017.4 hPa | - | - | - | - |
| 1777237784 | 21.67° C | 43% | 1017.5 hPa | - | - | - | - |
| 1777236884 | 21.67° C | 43% | 1017.6 hPa | - | - | - | - |
| 1777235084 | 21.11° C | 42% | 1017.6 hPa | - | - | - | - |
| 1777234184 | 21.11° C | 45% | 1017.5 hPa | - | - | - | - |
| 1777233284 | 21.11° C | 44% | 1017.6 hPa | - | - | - | - |
| 1777232384 | 21.11° C | 45% | 1017.6 hPa | - | - | - | - |
| 1777231484 | 20° C | 46% | 1017.5 hPa | - | - | - | - |
| 1777230584 | 19.44° C | 46% | 1017.5 hPa | - | - | - | - |
| 1777229684 | 18.89° C | 48% | 1017.5 hPa | - | - | - | - |
| 1777228784 | 19.44° C | 50% | 1017.5 hPa | - | - | - | - |
| 1777227883 | 18.89° C | 52% | 1017.5 hPa | - | - | - | - |
| 1777226984 | 18.89° C | 51% | 1017.3 hPa | - | - | - | - |
| 1777226083 | 17.78° C | 53% | 1017.3 hPa | - | - | - | - |
| 1777225183 | 17.78° C | 54% | 1017.2 hPa | - | - | - | - |
| 1777224283 | 17.22° C | 58% | 1017 hPa | - | - | - | - |
| 1777223383 | 17.78° C | 57% | 1016.9 hPa | - | - | - | - |
| 1777222483 | 17.78° C | 59% | 1017.3 hPa | - | - | - | - |
| 1777221583 | 16.67° C | 61% | 1016.5 hPa | - | - | - | - |
| 1777220684 | 16.67° C | 61% | 1016.5 hPa | - | - | - | - |
| 1777219783 | 16.11° C | 64% | 1016.4 hPa | - | - | - | - |
* Rain since midnight (hover to see other rain measurements)
** Current wind speed in m/s (hover to see current wind gust speed)